Duchifat 3
1 44854U 19089C   25111.88091555  .00069288  00000-0  15730-2 0  9994
2 44854  36.9456 303.8541 0000960 263.7712  96.2933 15.41946595295419
TO-108
1 44881U 19093C   25111.79378109  .00001984  00000-0  23579-3 0  9992
2 44881  97.7938 188.4633 0014582  37.0629 323.1591 14.85475822288839
FloripaSat 1
1 44885U 19093G   25111.79220687  .00011685  00000-0  99717-3 0  9999
2 44885  97.8153 199.3168 0010440  19.8371 340.3255 14.97820688289441
RS-44
1 44909U 19096E   25111.45735725  .00000033  00000-0  84092-4 0  9992
2 44909  82.5187 259.9152 0218164  50.6569 311.3643 12.79740301248408
UPMSat 2
1 46276U 20061E   25111.65931072  .00081088  00000-0  92301-3 0  9990
2 46276  97.2479 184.6269 0001568 138.3162 221.8215 15.62016568257819
SALSAT
1 46495U 20068K   25111.45100652  .00011833  00000-0  52229-3 0  9996
2 46495  97.8579  87.2495 0010793 343.8240  16.2649 15.21873979251057
CubeSX-Sirius-HSE
1 47951U 21022V   25111.85756464  .00265277  00000-0  18931-2 0  9991
2 47951  97.4201  22.2794 0010984 110.3186 249.9259 15.72942881226130
CubeSX-HSE
1 47952U 21022W   25111.81417386  .00272323  00000-0  18991-2 0  9991
2 47952  97.4210  22.4733 0010678 107.5397 252.7035 15.73470684226141
GRBAlpha
1 47959U 21022AD  25111.85245583  .00259722  00000-0  18617-2 0  9993
2 47959  97.4196  22.6318 0010672 109.9726 250.2688 15.72857816224979
TUBIN
1 48900U 21059X   25111.79313309  .00072184  00000-0  10419-2 0  9992
2 48900  97.6731 277.2339 0002917  72.0896 288.0676 15.55728612212442
LEDSAT
1 49069U 21073D   25111.15482777  .00068325  00000-0  10531-2 0  9998
2 49069  97.3915 190.8710 0011201 248.2774 111.7287 15.53876625203740
CUTE
1 49263U 21088D   25111.16706261  .00019263  00000-0  41006-3 0  9997
2 49263  97.4527 186.0555 0009386  68.9066 291.3185 15.44952699196796
TeikyoSat 4
1 49396U 21102B   25111.69862050  .00003593  00000-0  24119-3 0  9993
2 49396  97.4161 151.8852 0010902 306.1357  53.8861 15.07387917189184
Z-Sat
1 49399U 21102E   25111.84855631  .00007847  00000-0  43542-3 0  9997
2 49399  97.3860 154.8325 0016414 272.6330  87.3022 15.13907233189606
KOSEN 1
1 49402U 21102H   25111.55807692  .00011289  00000-0  53352-3 0  9999
2 49402  97.3762 157.6053 0014619 247.1298 112.8393 15.19474147189846
HO-113
1 50466U 21131B   25111.87027504  .00001121  00000-0  36430-3 0  9996
2 50466  98.5083 201.4692 0002929 283.4926  76.5936 14.40739093174431
IRIS-A
1 51044U 22002BN  25111.14551105  .00194612  00000-0  11281-2 0  9990
2 51044  97.3279 188.9504 0002606 252.2708 107.8274 15.78005083182049
Foresail-1
1 52766U 22057AL  25111.36588780  .00171651  00000-0  11507-2 0  9994
2 52766  97.6033 258.0021 0001981 158.9464 201.1882 15.74739710162106
SNUGLITE 2
1 52899U 22065F   25111.38853784  .00002418  00000-0  48024-3 0  9990
2 52899  98.1606 253.8653 0006347 265.2089  94.8388 14.63052905149299
IO-117
1 53106U 22080B   25051.21822557 -.00000003  00000-0  00000+0 0  9995
2 53106  70.1434 106.3440 0008542  48.0089 312.1297  6.42557744 61200
UmKA 1 (RS40S)
1 57172U 23091G   25111.86500652  .00010773  00000-0  58382-3 0  9996
2 57172  97.5630 167.5106 0016042 139.0622 221.1818 15.14665382100102
CubeBel-2 (EU11S)
1 57175U 23091K   25111.88317520  .00018804  00000-0  91977-3 0  9991
2 57175  97.5631 168.3955 0013878 147.1734 213.0365 15.18172213100168
VERONIKA
1 58261U 23174F   25111.83834394  .00139789  00000-0  18265-2 0  9992
2 58261  97.4152 195.5456 0007943 214.9099 145.1636 15.58144532 81063
ENSO
1 58470U 23185J   25111.86729274  .00074828  00000-0  13131-2 0  9998
2 58470  97.3765 185.6140 0007528 242.4610 117.5877 15.50255435 77475
EIRSAT-1
1 58472U 23185L   25111.84973502  .00115556  00000-0  15408-2 0  9996
2 58472  97.3736 186.8096 0007001 238.6790 121.3781 15.57692884 77556
SONATE-2
1 59112U 24043Q   25111.33901036  .00024049  00000-0  73546-3 0  9993
2 59112  97.5056 241.6167 0010401 287.9201  72.0907 15.33802710 62782
MO-122
1 60209U 24125G   25111.49355781  .00028114  00000-0  84767-3 0  9994
2 60209  97.2864 323.7087 0018259 316.8014  43.1795 15.34103942 44428
GRBBeta
1 60237U 24128C   25111.75108216  .00007850  00000-0  59489-3 0  9993
2 60237  61.9914 249.7449 0047472  46.7625 313.7413 15.02125213 42867
Curium One
1 60242U 24128H   25111.46382032  .00011567  00000-0  82118-3 0  9992
2 60242  61.9818 249.7115 0047253  42.2719 318.1999 15.04234013 42845
ROBUSTA-3A
1 60243U 24128J   25111.51859336  .00013053  00000-0  93659-3 0  9999
2 60243  61.9886 250.1906 0045693  40.0463 320.3982 15.03808845 42849
CatSat
1 60246U 24125J   25111.50370404  .00013491  00000-0  46578-3 0  9996
2 60246  97.2656 323.4651 0041831 268.7532  90.8916 15.29218735 42483
HYPERVIEW-1G (RS66S)
1 61772U 24199AP  25111.83269638  .00036369  00000-0  11284-2 0  9998
2 61772  97.3614 340.8465 0014364  15.9531 344.2161 15.33205601 69481
AO-123
1 61781U 24199AY  25111.79250423  .00012689  00000-0  47120-3 0  9993
2 61781  97.3624 340.1607 0016455  17.3591 342.8208 15.27570489 69431
ZIMSAT 2
1 61783U 24199BA  25111.83017781  .00058760  00000-0  16207-2 0  9999
2 61783  97.3601 341.1414 0014491  14.6337 345.5324 15.36792993 72654
HADES-R (SO-124)
1 62690U 25009CK  25111.21194371  .00047258  00000-0  18759-2 0  9995
2 62690  97.4104 192.3421 0003203 225.5066 134.5911 15.25185198 14617
HYDRA-T
1 62692U 25009CM  25111.46675613  .00050145  00000-0  19773-2 0  9993
2 62692  97.4104 192.6117 0003302 220.2169 139.8825 15.25392029 14659
JINJUSat 1B
1 63210U 25052A   25111.22351708  .00016800  00000-0  79790-3 0  9994
2 63210  97.4473   6.0017 0006275 119.7622 240.4237 15.19287582  5757
NUSHSAT 1
1 63211U 25052B   25111.28949259  .00018386  00000-0  87071-3 0  9997
2 63211  97.4462   6.0619 0006191 123.4382 236.7445 15.19367815  5764
TEVEL2-4
1 63213U 25052D   25111.22850422  .00018075  00000-0  86203-3 0  9997
2 63213  97.4382   5.9537 0004798 131.1274 229.0375 15.19132971  5750
TEVEL2-5
1 63214U 25052E   25111.22862802  .00017933  00000-0  85558-3 0  9997
2 63214  97.4380   5.9529 0004885 132.3701 227.7948 15.19122511  5755
TEVEL2-6
1 63215U 25052F   25111.22947575  .00017780  00000-0  84923-3 0  9994
2 63215  97.4380   5.9523 0004955 132.6739 227.4914 15.19083760  5754
TEVEL2-1
1 63217U 25052H   25110.24569971  .00020850  00000-0  10014-2 0  9998
2 63217  97.4351   4.9631 0004526 147.1843 212.9674 15.18859078  5602
TEVEL2-2
1 63218U 25052J   25111.23411266  .00017340  00000-0  83319-3 0  9991
2 63218  97.4342   5.9368 0004684 141.8591 218.2976 15.18882429  5753
TEVEL2-3
1 63219U 25052K   25109.65296421  .00022170  00000-0  10653-2 0  9996
2 63219  97.4354   4.3800 0004507 148.3428 211.8078 15.18830559  5519
TEVEL2-8
1 63237U 25052AD  25111.19533600  .00017264  00000-0  85686-3 0  9998
2 63237  97.4410   5.8631 0008344 172.0779 188.0588 15.17733090  5743
TEVEL2-9
1 63238U 25052AE  25111.52569457  .00019725  00000-0  97888-3 0  9996
2 63238  97.4421   6.1872 0008464 171.4971 188.6407 15.17708314  5799
TEVEL2-7
1 63239U 25052AF  25111.52650961  .00019738  00000-0  98049-3 0  9992
2 63239  97.4416   6.1858 0008577 172.0730 188.0641 15.17671917  5795
HYDRA-W
1 63490U 25052BL  25111.49539211  .00043030  00000-0  19750-2 0  9994
2 63490  97.4373   6.2052 0012785 171.6434 188.5017 15.20205748  5796
HADES-ICM
1 63492U 25052BN  25111.82800013  .00046395  00000-0  21437-2 0  9996
2 63492  97.4380   6.5263 0012906 174.7048 185.4326 15.19955408  5841
